TimeCST,TemperatureF,Dew PointF,Humidity,Sea Level PressureIn,VisibilityMPH,Wind Direction,Wind SpeedMPH,Gust SpeedMPH,PrecipitationIn,Events,Conditions,WindDirDegrees,DateUTC
12:00 AM,68,66,90,29.81,12,East,3.5,,,,Mostly Cloudy,100,2012-05-29 06:00:00
12:00 AM,68.0,66.2,94,29.99,-9999.0,East,3.5,-,N/A,,Clear,100,2012-05-29 06:00:00
1:00 AM,68.0,66.2,94,29.96,-9999.0,East,3.5,-,N/A,,Clear,100,2012-05-29 07:00:00
2:00 AM,66.2,64.4,94,29.94,-9999.0,East,5.8,-,N/A,,Clear,90,2012-05-29 08:00:00
3:00 AM,67,64,85,29.79,12,ENE,5.8,,,,Partly Cloudy,60,2012-05-29 09:00:00
3:00 AM,66.2,64.4,94,29.93,-9999.0,ENE,5.8,-,N/A,,Clear,60,2012-05-29 09:00:00
4:00 AM,68.0,64.4,88,29.93,-9999.0,NE,6.9,-,N/A,,Clear,50,2012-05-29 10:00:00
5:00 AM,69.8,64.4,83,29.95,-9999.0,NE,8.1,-,N/A,,Clear,50,2012-05-29 11:00:00
6:00 AM,72,64,71,29.85,12,East,5.8,,,,Scattered Clouds,80,2012-05-29 12:00:00
6:00 AM,71.6,64.4,78,29.96,-9999.0,East,5.8,-,N/A,,Clear,80,2012-05-29 12:00:00
7:00 AM,75.2,68.0,78,29.97,-9999.0,ENE,8.1,-,N/A,,Clear,70,2012-05-29 13:00:00
8:00 AM,78.8,66.2,65,29.98,-9999.0,ESE,8.1,-,N/A,,Clear,110,2012-05-29 14:00:00
8:10 AM,77.0,71.6,83,29.99,-9999.0,SW,8.1,-,N/A,,Clear,230,2012-05-29 14:10:00
9:00 AM,78,69,67,29.83,12,SSW,8.1,,,,Clear,200,2012-05-29 15:00:00
9:00 AM,78.8,66.2,65,29.99,-9999.0,SSW,8.1,-,N/A,,Clear,200,2012-05-29 15:00:00
10:00 AM,78.8,68.0,69,29.99,6.2,WSW,9.2,-,N/A,,Mostly Cloudy,250,2012-05-29 16:00:00
11:00 AM,80.6,69.8,70,29.97,6.2,West,6.9,-,N/A,,Mostly Cloudy,270,2012-05-29 17:00:00
12:00 PM,83,69,55,29.79,12,WSW,6.9,,,,Partly Cloudy,250,2012-05-29 18:00:00
12:00 PM,82.4,69.8,66,29.97,6.2,WSW,6.9,-,N/A,,Mostly Cloudy,250,2012-05-29 18:00:00
1:00 PM,82.4,69.8,66,29.94,6.2,WSW,11.5,-,N/A,,Scattered Clouds,250,2012-05-29 19:00:00
2:00 PM,78.8,71.6,78,29.92,6.2,SW,11.5,-,N/A,,Scattered Clouds,230,2012-05-29 20:00:00
3:00 PM,77,71,77,29.78,12,WSW,12.7,,,Thunderstorm,Thunderstorm,250,2012-05-29 21:00:00
3:00 PM,77.0,71.6,83,29.92,6.2,WSW,12.7,-,N/A,Thunderstorm,Mostly Cloudy,250,2012-05-29 21:00:00
3:35 PM,71.6,69.8,94,29.92,3.1,WSW,10.4,-,N/A,Rain-Thunderstorm,Light Thunderstorms and Rain,240,2012-05-29 21:35:00
4:00 PM,71.6,71.6,100,29.92,3.1,WSW,8.1,-,N/A,Rain-Thunderstorm,Light Thunderstorms and Rain,240,2012-05-29 22:00:00
4:15 PM,73.4,71.6,94,29.92,6.2,West,5.8,-,N/A,,Mostly Cloudy,260,2012-05-29 22:15:00
5:00 PM,73.4,69.8,88,29.94,6.2,NNW,8.1,-,N/A,,Overcast,330,2012-05-29 23:00:00
6:00 PM,72,68,84,29.78,3,NW,9.2,,,Thunderstorm,Thunderstorm,310,2012-05-30 00:00:00
6:00 PM,73.4,68.0,83,29.94,6.2,NW,9.2,-,N/A,Thunderstorm,Mostly Cloudy,310,2012-05-30 00:00:00
6:20 PM,71.6,64.4,78,29.95,6.2,NNE,8.1,-,N/A,,Mostly Cloudy,30,2012-05-30 00:20:00
7:00 PM,69.8,66.2,88,29.97,6.2,East,4.6,-,N/A,Rain,Light Rain,100,2012-05-30 01:00:00
8:00 PM,69.8,66.2,88,29.99,6.2,ESE,3.5,-,N/A,,Mostly Cloudy,110,2012-05-30 02:00:00
9:00 PM,71,68,87,29.83,12,ENE,4.6,,,Rain,Light Rain,70,2012-05-30 03:00:00
9:00 PM,71.6,68.0,88,30.01,6.2,ENE,4.6,-,N/A,Rain,Light Rain,70,2012-05-30 03:00:00
10:00 PM,71.6,66.2,83,30.02,-9999.0,ENE,6.9,-,N/A,,Drizzle,70,2012-05-30 04:00:00
10:40 PM,69.8,66.2,88,30.03,2.5,NE,10.4,-,N/A,Rain,Rain,40,2012-05-30 04:40:00
11:00 PM,69.8,66.2,88,30.02,3.1,East,3.5,-,N/A,Rain,Rain,80,2012-05-30 05:00:00
11:30 PM,69.8,68.0,94,30.00,5.0,NE,4.6,-,N/A,Rain,Light Rain,50,2012-05-30 05:30:00